QPF
0.00 0.00 0.00 0.00 0.01 0.01 0.03 0.06 0.15 0.22 0.25 0.26 0.26 0.26 0.24 0.27 0.27 0.21 0.12 0.07 0.04 0.04 0.05 0.07 0.06 0.06 0.05 0.04 0.03 0.02 0.02 0.01 0.01 0.01 0.01 0.01 0.01 0.01 0.01 0.00 0.00 0.00 0.00 0.04
0.00 0.00 0.00 0.00 0.01 0.03 0.06 0.10 0.15 0.18 0.20 0.17 0.11 0.07 0.06 0.08 0.10 0.08 0.03 0.01 0.01 0.01 0.01 0.01 0.01 0.01 0.01 0.00 0.00 0.00 0.00 0.01 0.01 0.01 0.01 0.01 0.01 0.01 0.00 0.01 0.01 0.00 0.00 0.02
0.00 0.00 0.00 0.00 0.00 0.03 0.06 0.07 0.08 0.11 0.15 0.15 0.08 0.02 0.01 0.01 0.01 0.01 0.01 0.01 0.00 0.00 0.00 0.00 0.00 0.00 0.00 0.00 0.00 0.00 0.00 0.00 0.00 0.00 0.00 0.00 0.00 0.01 0.01 0.01 0.01 0.01 0.00 0.01
0.00 0.00 0.00 0.00 0.00 0.00 0.01 0.02 0.04 0.05 0.07 0.08 0.04 0.00 0.00 0.00 0.00 0.00 0.00 0.00 0.00 0.00 0.00 0.00 0.00 0.00 0.00 0.00 0.00 0.00 0.00 0.00 0.00 0.00 0.00 0.00 0.00 0.00 0.00 0.00 0.00 0.00 0.01 0.03
0.00 0.00 0.00 0.00 0.00 0.00 0.00 0.00 0.00 0.00 0.00 0.01 0.00 0.00 0.00 0.00 0.00 0.00 0.00 0.00 0.00 0.00 0.00 0.00 0.00 0.00 0.00 0.00 0.00 0.00 0.00 0.00 0.00 0.00 0.00 0.00 0.00 0.00 0.00 0.00 0.00 0.00 0.00 0.02
0.00 0.00 0.00 0.00 0.00 0.00 0.00 0.00 0.00 0.00 0.00 0.00 0.00 0.00 0.00 0.00 0.00 0.00 0.00 0.00 0.00 0.00 0.00 0.00 0.00 0.00 0.00 0.00 0.00 0.00 0.00 0.00 0.00 0.00 0.00 0.00 0.00 0.00 0.00 0.00 0.00 0.00 0.00 0.00
0.00 0.00 0.00 0.00 0.00 0.00 0.00 0.00 0.00 0.00 0.00 0.00 0.00 0.00 0.00 0.00 0.00 0.00 0.00 0.00 0.00 0.00 0.00 0.00 0.00 0.00 0.00 0.00 0.00 0.00 0.00 0.00 0.00 0.00 0.00 0.00 0.00 0.00 0.00 0.00 0.00 0.00 0.00 0.00
0.00 0.00 0.00 0.00 0.00 0.00 0.00 0.00 0.00 0.00 0.00 0.00 0.00 0.00 0.00 0.00 0.00 0.00 0.00 0.00 0.00 0.00 0.00 0.00 0.00 0.00 0.00 0.00 0.00 0.00 0.00 0.00 0.00 0.00 0.00 0.00 0.00 0.00 0.00 0.00 0.00 0.00 0.00 0.00
0.00 0.00 0.00 0.00 0.00 0.00 0.00 0.00 0.00 0.00 0.00 0.00 0.00 0.00 0.00 0.00 0.00 0.00 0.00 0.00 0.00 0.00 0.00 0.00 0.00 0.00 0.00 0.00 0.00 0.00 0.00 0.00 0.00 0.00 0.00 0.00 0.00 0.00 0.00 0.00 0.00 0.00 0.00 0.00
0.00 0.00 0.00 0.00 0.00 0.00 0.00 0.00 0.00 0.00 0.00 0.00 0.00 0.00 0.00 0.00 0.00 0.00 0.00 0.00 0.00 0.00 0.00 0.00 0.00 0.00 0.00 0.00 0.00 0.00 0.00 0.00 0.00 0.00 0.00 0.00 0.00 0.00 0.00 0.00 0.00 0.00 0.00 0.01
0.00 0.00 0.00 0.00 0.00 0.00 0.00 0.00 0.00 0.00 0.00 0.00 0.00 0.00 0.00 0.00 0.00 0.00 0.00 0.00 0.00 0.00 0.00 0.00 0.00 0.00 0.00 0.00 0.00 0.00 0.00 0.00 0.00 0.00 0.00 0.01 0.00 0.00 0.00 0.00 0.00 0.00 0.01 0.01
0.00 0.00 0.00 0.00 0.00 0.00 0.00 0.00 0.00 0.00 0.00 0.00 0.00 0.00 0.00 0.00 0.00 0.00 0.00 0.00 0.00 0.00 0.00 0.00 0.00 0.00 0.00 0.00 0.00 0.00 0.00 0.00 0.00 0.00 0.00 0.00 0.00 0.00 0.00 0.00 0.00 0.00 0.00 0.00
0.00 0.00 0.00 0.00 0.00 0.00 0.00 0.00 0.00 0.00 0.00 0.00 0.00 0.00 0.00 0.00 0.00 0.00 0.00 0.00 0.00 0.00 0.00 0.00 0.00 0.00 0.00 0.00 0.00 0.00 0.00 0.00 0.00 0.00 0.00 0.00 0.00 0.00 0.01 0.01 0.00 0.00 0.00 0.00
0.00 0.00 0.00 0.00 0.00 0.00 0.00 0.00 0.00 0.00 0.00 0.00 0.00 0.00 0.00 0.00 0.00 0.00 0.00 0.00 0.00 0.00 0.00 0.00 0.00 0.00 0.00 0.00 0.00 0.00 0.00 0.00 0.00 0.00 0.00 0.00 0.00 0.00 0.00 0.00 0.01 0.01 0.01 0.00
0.00 0.00 0.00 0.00 0.00 0.00 0.00 0.00 0.00 0.00 0.00 0.00 0.00 0.00 0.00 0.00 0.00 0.00 0.00 0.00 0.00 0.00 0.00 0.00 0.00 0.00 0.00 0.00 0.00 0.00 0.00 0.00 0.00 0.00 0.00 0.00 0.00 0.00 0.00 0.00 0.00 0.00 0.01 0.00
0.00 0.00 0.00 0.00 0.00 0.00 0.00 0.00 0.00 0.00 0.00 0.00 0.00 0.00 0.00 0.00 0.00 0.00 0.00 0.00 0.00 0.00 0.00 0.00 0.00 0.00 0.00 0.00 0.00 0.00 0.00 0.00 0.00 0.00 0.00 0.00 0.00 0.00 0.00 0.00 0.00 0.00 0.01 0.00
0.00 0.00 0.00 0.00 0.00 0.00 0.00 0.00 0.00 0.00 0.00 0.00 0.00 0.00 0.00 0.00 0.00 0.00 0.00 0.00 0.00 0.00 0.00 0.00 0.00 0.00 0.00 0.00 0.00 0.00 0.00 0.00 0.00 0.00 0.00 0.00 0.00 0.00 0.00 0.00 0.00 0.00 0.00 0.00
0.00 0.00 0.00 0.00 0.00 0.00 0.00 0.00 0.00 0.00 0.00 0.00 0.00 0.00 0.00 0.00 0.00 0.00 0.00 0.00 0.00 0.00 0.00 0.00 0.00 0.00 0.00 0.00 0.00 0.00 0.00 0.00 0.00 0.00 0.00 0.00 0.00 0.00 0.00 0.00 0.00 0.00 0.00 0.00
0.00 0.00 0.00 0.00 0.00 0.00 0.00 0.00 0.00 0.00 0.00 0.00 0.00 0.00 0.00 0.00 0.00 0.00 0.00 0.00 0.00 0.00 0.00 0.00 0.00 0.00 0.00 0.00 0.00 0.00 0.00 0.00 0.00 0.00 0.00 0.00 0.00 0.00 0.00 0.01 0.01 0.00 0.00 0.00
0.00 0.00 0.00 0.00 0.00 0.00 0.00 0.00 0.00 0.00 0.00 0.00 0.00 0.00 0.00 0.00 0.00 0.00 0.00 0.00 0.00 0.00 0.00 0.00 0.00 0.00 0.00 0.00 0.00 0.00 0.00 0.00 0.00 0.00 0.00 0.00 0.00 0.00 0.00 0.01 0.01 0.01 0.01 0.01
0.00 0.00 0.00 0.00 0.00 0.00 0.00 0.00 0.00 0.00 0.00 0.00 0.00 0.00 0.00 0.00 0.00 0.00 0.00 0.00 0.00 0.00 0.00 0.00 0.00 0.00 0.00 0.00 0.00 0.00 0.00 0.00 0.00 0.00 0.00 0.00 0.00 0.00 0.00 0.01 0.01 0.01 0.01 0.01
0.00 0.00 0.00 0.00 0.00 0.00 0.00 0.00 0.00 0.00 0.00 0.00 0.00 0.00 0.00 0.00 0.00 0.00 0.00 0.00 0.00 0.00 0.00 0.00 0.00 0.00 0.00 0.00 0.00 0.00 0.00 0.00 0.00 0.00 0.00 0.00 0.00 0.00 0.00 0.01 0.01 0.01 0.01 0.01
0.00 0.00 0.00 0.00 0.00 0.00 0.00 0.00 0.00 0.00 0.00 0.00 0.00 0.00 0.00 0.00 0.00 0.00 0.00 0.00 0.00 0.00 0.00 0.00 0.00 0.00 0.00 0.00 0.00 0.00 0.00 0.00 0.00 0.00 0.00 0.00 0.00 0.00 0.00 0.00 0.01 0.00 0.00 0.00
0.00 0.00 0.00 0.00 0.00 0.00 0.00 0.00 0.00 0.00 0.00 0.00 0.00 0.00 0.00 0.00 0.00 0.00 0.00 0.00 0.00 0.00 0.00 0.00 0.00 0.00 0.00 0.00 0.00 0.00 0.00 0.00 0.00 0.00 0.00 0.00 0.00 0.00 0.00 0.00 0.00 0.00 0.00 0.00
0.00 0.00 0.00 0.00 0.00 0.00 0.00 0.00 0.00 0.00 0.00 0.00 0.00 0.00 0.00 0.00 0.00 0.00 0.00 0.00 0.00 0.00 0.00 0.00 0.00 0.00 0.00 0.00 0.00 0.00 0.00 0.00 0.00 0.00 0.00 0.00 0.00 0.00 0.00 0.00 0.00 0.00 0.00 0.00
0.00 0.00 0.00 0.00 0.00 0.00 0.00 0.00 0.00 0.00 0.00 0.00 0.00 0.00 0.00 0.00 0.00 0.00 0.00 0.00 0.00 0.00 0.00 0.00 0.00 0.00 0.00 0.00 0.00 0.00 0.00 0.00 0.00 0.00 0.00 0.00 0.00 0.00 0.00 0.00 0.00 0.00 0.00 0.00
0.00 0.00 0.00 0.00 0.00 0.00 0.00 0.00 0.00 0.00 0.00 0.00 0.00 0.00 0.00 0.00 0.00 0.00 0.00 0.00 0.00 0.00 0.00 0.00 0.00 0.00 0.00 0.00 0.00 0.00 0.00 0.00 0.00 0.00 0.00 0.00 0.00 0.00 0.00 0.00 0.00 0.00 0.00 0.00
MSLP
1023.21 1023.55 1023.95 1024.39 1024.80 1025.14 1025.36 1025.40 1025.24 1024.88 1024.33 1023.65 1022.86 1022.03 1021.20 1020.41 1019.68 1019.02 1018.40 1017.84 1017.30 1016.79 1016.32 1015.87 1015.48 1015.16 1014.91 1014.74 1014.65 1014.60 1014.58 1014.55 1014.48 1014.37 1014.21 1014.00 1013.76 1013.52 1013.32 1013.16 1013.06 1013.04 1013.07 1013.14
1023.16 1023.48 1023.87 1024.28 1024.68 1024.99 1025.18 1025.21 1025.04 1024.68 1024.15 1023.48 1022.73 1021.94 1021.16 1020.43 1019.74 1019.13 1018.56 1018.04 1017.54 1017.07 1016.63 1016.22 1015.86 1015.55 1015.31 1015.15 1015.04 1014.98 1014.93 1014.87 1014.77 1014.64 1014.45 1014.23 1013.99 1013.77 1013.57 1013.43 1013.36 1013.34 1013.38 1013.45
1023.08 1023.35 1023.68 1024.04 1024.38 1024.64 1024.79 1024.78 1024.60 1024.25 1023.75 1023.13 1022.43 1021.71 1021.00 1020.34 1019.72 1019.17 1018.66 1018.19 1017.74 1017.32 1016.91 1016.54 1016.20 1015.92 1015.70 1015.55 1015.44 1015.37 1015.31 1015.24 1015.13 1014.98 1014.79 1014.57 1014.34 1014.13 1013.95 1013.83 1013.76 1013.75 1013.78 1013.84
1022.98 1023.19 1023.44 1023.72 1023.98 1024.18 1024.27 1024.23 1024.04 1023.71 1023.25 1022.69 1022.07 1021.43 1020.82 1020.23 1019.70 1019.22 1018.77 1018.35 1017.94 1017.56 1017.19 1016.84 1016.54 1016.28 1016.08 1015.94 1015.84 1015.78 1015.71 1015.64 1015.54 1015.39 1015.21 1015.00 1014.79 1014.59 1014.43 1014.32 1014.26 1014.24 1014.26 1014.29
1022.88 1023.01 1023.18 1023.38 1023.56 1023.69 1023.73 1023.66 1023.48 1023.17 1022.76 1022.28 1021.75 1021.22 1020.69 1020.20 1019.74 1019.32 1018.93 1018.55 1018.18 1017.82 1017.47 1017.14 1016.86 1016.62 1016.43 1016.30 1016.21 1016.15 1016.10 1016.04 1015.94 1015.82 1015.66 1015.47 1015.29 1015.11 1014.97 1014.87 1014.81 1014.79 1014.79 1014.79
1022.74 1022.82 1022.92 1023.04 1023.15 1023.22 1023.23 1023.16 1022.99 1022.73 1022.38 1021.98 1021.55 1021.10 1020.67 1020.26 1019.87 1019.50 1019.14 1018.79 1018.44 1018.09 1017.74 1017.42 1017.14 1016.90 1016.72 1016.60 1016.52 1016.47 1016.43 1016.38 1016.31 1016.21 1016.09 1015.94 1015.78 1015.64 1015.53 1015.44 1015.39 1015.37 1015.35 1015.32
1022.54 1022.57 1022.63 1022.70 1022.77 1022.82 1022.81 1022.74 1022.61 1022.40 1022.12 1021.81 1021.46 1021.10 1020.75 1020.40 1020.06 1019.73 1019.39 1019.05 1018.69 1018.34 1017.98 1017.66 1017.37 1017.12 1016.94 1016.82 1016.74 1016.70 1016.67 1016.65 1016.61 1016.54 1016.46 1016.35 1016.25 1016.15 1016.06 1016.01 1015.97 1015.94 1015.91 1015.85
1022.23 1022.25 1022.29 1022.34 1022.40 1022.45 1022.46 1022.42 1022.33 1022.18 1021.97 1021.73 1021.46 1021.18 1020.88 1020.58 1020.27 1019.96 1019.62 1019.27 1018.90 1018.53 1018.16 1017.82 1017.51 1017.26 1017.06 1016.93 1016.86 1016.82 1016.81 1016.81 1016.81 1016.78 1016.75 1016.70 1016.64 1016.59 1016.55 1016.53 1016.51 1016.49 1016.45 1016.37
1021.79 1021.82 1021.87 1021.94 1022.02 1022.10 1022.14 1022.15 1022.11 1022.02 1021.89 1021.71 1021.51 1021.27 1021.02 1020.75 1020.46 1020.14 1019.80 1019.43 1019.04 1018.65 1018.26 1017.89 1017.57 1017.30 1017.09 1016.96 1016.88 1016.85 1016.86 1016.88 1016.91 1016.94 1016.95 1016.96 1016.96 1016.97 1016.98 1016.99 1016.99 1016.98 1016.94 1016.84
1021.23 1021.29 1021.37 1021.48 1021.61 1021.73 1021.83 1021.90 1021.92 1021.90 1021.82 1021.70 1021.54 1021.34 1021.12 1020.86 1020.57 1020.25 1019.89 1019.51 1019.11 1018.69 1018.29 1017.90 1017.56 1017.28 1017.06 1016.92 1016.84 1016.82 1016.84 1016.89 1016.95 1017.02 1017.08 1017.14 1017.20 1017.26 1017.32 1017.36 1017.40 1017.40 1017.36 1017.26
1020.58 1020.67 1020.80 1020.97 1021.15 1021.34 1021.50 1021.64 1021.72 1021.75 1021.73 1021.66 1021.53 1021.36 1021.15 1020.90 1020.61 1020.28 1019.92 1019.53 1019.11 1018.69 1018.27 1017.88 1017.53 1017.24 1017.01 1016.86 1016.78 1016.76 1016.79 1016.86 1016.95 1017.05 1017.16 1017.26 1017.37 1017.47 1017.57 1017.65 1017.71 1017.73 1017.70 1017.59
1019.87 1020.00 1020.18 1020.41 1020.67 1020.92 1021.16 1021.36 1021.50 1021.59 1021.61 1021.57 1021.47 1021.32 1021.12 1020.87 1020.59 1020.26 1019.90 1019.51 1019.10 1018.67 1018.26 1017.86 1017.51 1017.22 1016.99 1016.83 1016.74 1016.72 1016.76 1016.83 1016.94 1017.06 1017.20 1017.34 1017.48 1017.62 1017.74 1017.85 1017.92 1017.96 1017.93 1017.83
1019.17 1019.33 1019.57 1019.86 1020.18 1020.51 1020.81 1021.07 1021.27 1021.40 1021.46 1021.45 1021.38 1021.24 1021.06 1020.83 1020.55 1020.24 1019.89 1019.51 1019.11 1018.70 1018.29 1017.90 1017.55 1017.25 1017.02 1016.85 1016.76 1016.73 1016.76 1016.83 1016.94 1017.08 1017.23 1017.39 1017.55 1017.70 1017.84 1017.96 1018.05 1018.09 1018.08 1018.00
1018.50 1018.70 1018.99 1019.34 1019.73 1020.12 1020.48 1020.79 1021.04 1021.21 1021.30 1021.32 1021.27 1021.16 1021.00 1020.79 1020.53 1020.24 1019.91 1019.56 1019.17 1018.78 1018.38 1018.01 1017.66 1017.35 1017.11 1016.93 1016.82 1016.78 1016.80 1016.87 1016.97 1017.11 1017.26 1017.42 1017.58 1017.74 1017.88 1018.00 1018.09 1018.14 1018.14 1018.09
1017.88 1018.13 1018.47 1018.88 1019.33 1019.77 1020.19 1020.54 1020.83 1021.03 1021.16 1021.20 1021.18 1021.09 1020.95 1020.77 1020.55 1020.28 1019.98 1019.66 1019.30 1018.92 1018.54 1018.16 1017.81 1017.50 1017.24 1017.05 1016.92 1016.86 1016.86 1016.92 1017.01 1017.14 1017.29 1017.44 1017.60 1017.75 1017.88 1017.99 1018.08 1018.14 1018.15 1018.12
1017.32 1017.62 1018.02 1018.49 1018.98 1019.48 1019.93 1020.32 1020.64 1020.87 1021.02 1021.09 1021.09 1021.03 1020.93 1020.78 1020.59 1020.36 1020.09 1019.79 1019.45 1019.09 1018.72 1018.34 1017.98 1017.66 1017.38 1017.16 1017.02 1016.94 1016.92 1016.96 1017.05 1017.17 1017.31 1017.46 1017.60 1017.74 1017.86 1017.96 1018.04 1018.10 1018.12 1018.12
1016.81 1017.17 1017.63 1018.15 1018.69 1019.22 1019.70 1020.11 1020.45 1020.70 1020.87 1020.96 1020.99 1020.97 1020.90 1020.78 1020.63 1020.43 1020.20 1019.93 1019.61 1019.26 1018.88 1018.50 1018.13 1017.78 1017.48 1017.24 1017.07 1016.98 1016.95 1016.98 1017.06 1017.18 1017.31 1017.46 1017.59 1017.72 1017.83 1017.92 1017.99 1018.04 1018.08 1018.10
1016.36 1016.77 1017.28 1017.84 1018.42 1018.97 1019.46 1019.89 1020.24 1020.50 1020.69 1020.80 1020.86 1020.86 1020.82 1020.75 1020.64 1020.48 1020.27 1020.02 1019.72 1019.38 1019.00 1018.61 1018.22 1017.85 1017.53 1017.26 1017.07 1016.96 1016.92 1016.94 1017.03 1017.15 1017.29 1017.43 1017.57 1017.69 1017.79 1017.87 1017.94 1017.99 1018.03 1018.06
1015.95 1016.42 1016.96 1017.55 1018.14 1018.70 1019.20 1019.62 1019.97 1020.24 1020.43 1020.57 1020.65 1020.69 1020.69 1020.65 1020.58 1020.46 1020.28 1020.05 1019.77 1019.43 1019.04 1018.64 1018.23 1017.84 1017.49 1017.21 1017.00 1016.87 1016.82 1016.86 1016.94 1017.07 1017.23 1017.38 1017.53 1017.66 1017.76 1017.83 1017.89 1017.94 1017.98 1018.02
1015.60 1016.10 1016.66 1017.25 1017.84 1018.38 1018.86 1019.28 1019.62 1019.88 1020.09 1020.24 1020.35 1020.42 1020.46 1020.47 1020.43 1020.35 1020.21 1020.01 1019.73 1019.40 1019.02 1018.60 1018.17 1017.76 1017.39 1017.09 1016.86 1016.72 1016.68 1016.71 1016.81 1016.95 1017.13 1017.30 1017.46 1017.60 1017.71 1017.79 1017.84 1017.88 1017.92 1017.96
1015.32 1015.82 1016.38 1016.94 1017.50 1018.01 1018.46 1018.85 1019.17 1019.44 1019.65 1019.82 1019.95 1020.06 1020.15 1020.20 1020.21 1020.17 1020.06 1019.89 1019.64 1019.31 1018.93 1018.51 1018.07 1017.64 1017.25 1016.93 1016.69 1016.54 1016.49 1016.52 1016.62 1016.78 1016.97 1017.17 1017.35 1017.50 1017.63 1017.71 1017.77 1017.81 1017.85 1017.89
1015.13 1015.60 1016.10 1016.62 1017.12 1017.58 1017.99 1018.34 1018.65 1018.90 1019.12 1019.31 1019.48 1019.63 1019.76 1019.86 1019.92 1019.92 1019.86 1019.72 1019.49 1019.18 1018.81 1018.39 1017.94 1017.50 1017.10 1016.76 1016.50 1016.33 1016.27 1016.29 1016.40 1016.56 1016.76 1016.97 1017.17 1017.35 1017.49 1017.59 1017.66 1017.71 1017.75 1017.79
1015.02 1015.42 1015.85 1016.29 1016.71 1017.11 1017.46 1017.78 1018.06 1018.31 1018.54 1018.75 1018.95 1019.14 1019.32 1019.47 1019.58 1019.63 1019.61 1019.50 1019.30 1019.02 1018.66 1018.25 1017.81 1017.36 1016.94 1016.58 1016.30 1016.12 1016.03 1016.04 1016.13 1016.29 1016.49 1016.70 1016.92 1017.11 1017.28 1017.41 1017.50 1017.57 1017.62 1017.68
1014.96 1015.26 1015.60 1015.94 1016.29 1016.61 1016.92 1017.19 1017.45 1017.70 1017.93 1018.17 1018.40 1018.63 1018.85 1019.04 1019.19 1019.29 1019.31 1019.24 1019.08 1018.82 1018.49 1018.09 1017.66 1017.21 1016.79 1016.41 1016.11 1015.89 1015.78 1015.76 1015.82 1015.96 1016.15 1016.36 1016.58 1016.79 1016.98 1017.14 1017.26 1017.36 1017.45 1017.54
1014.91 1015.11 1015.34 1015.59 1015.85 1016.11 1016.36 1016.61 1016.84 1017.09 1017.33 1017.58 1017.84 1018.10 1018.35 1018.58 1018.77 1018.90 1018.95 1018.92 1018.79 1018.57 1018.27 1017.90 1017.48 1017.04 1016.62 1016.23 1015.91 1015.66 1015.51 1015.46 1015.49 1015.59 1015.75 1015.95 1016.17 1016.39 1016.60 1016.78 1016.95 1017.09 1017.22 1017.35
1014.83 1014.93 1015.06 1015.23 1015.42 1015.61 1015.82 1016.04 1016.26 1016.50 1016.74 1017.01 1017.28 1017.56 1017.83 1018.07 1018.28 1018.44 1018.52 1018.52 1018.42 1018.24 1017.97 1017.63 1017.24 1016.82 1016.41 1016.03 1015.69 1015.43 1015.24 1015.15 1015.13 1015.20 1015.32 1015.50 1015.70 1015.92 1016.14 1016.35 1016.55 1016.75 1016.93 1017.12
1014.65 1014.67 1014.73 1014.83 1014.96 1015.12 1015.29 1015.49 1015.70 1015.93 1016.18 1016.44 1016.71 1016.99 1017.26 1017.51 1017.72 1017.88 1017.98 1018.00 1017.94 1017.79 1017.57 1017.27 1016.93 1016.55 1016.16 1015.79 1015.46 1015.19 1014.98 1014.85 1014.79 1014.81 1014.90 1015.03 1015.21 1015.41 1015.64 1015.87 1016.10 1016.34 1016.57 1016.82
Thickness
5622 5615 5611 5601 5594 5594 5588 5580 5575 5572 5576 5581 5588 5593 5598 5605 5613 5621 5628 5633 5638 5642 5645 5648 5651 5653 5654 5654 5656 5660 5661 5661 5662 5663 5664 5665 5666 5667 5669 5671 5672 5671 5671 5670
5628 5622 5617 5608 5601 5597 5590 5585 5583 5584 5585 5591 5595 5601 5604 5609 5615 5622 5627 5633 5638 5642 5645 5647 5650 5653 5655 5655 5654 5656 5657 5658 5659 5661 5662 5662 5662 5663 5664 5666 5667 5666 5666 5664
5640 5630 5625 5617 5606 5598 5593 5590 5589 5588 5591 5597 5603 5607 5610 5613 5619 5624 5630 5634 5638 5642 5644 5647 5649 5652 5654 5654 5654 5655 5655 5656 5657 5658 5658 5658 5659 5659 5659 5659 5658 5656 5656 5654
5647 5639 5631 5625 5619 5611 5604 5600 5600 5600 5604 5608 5612 5618 5622 5622 5624 5629 5634 5638 5641 5644 5647 5649 5651 5653 5654 5655 5656 5655 5654 5654 5654 5653 5653 5654 5654 5653 5652 5651 5648 5645 5642 5641
5650 5637 5636 5628 5627 5623 5618 5614 5616 5615 5618 5623 5628 5637 5633 5631 5632 5634 5638 5641 5645 5647 5649 5651 5651 5653 5654 5653 5652 5650 5649 5648 5649 5650 5648 5647 5646 5644 5642 5640 5638 5635 5631 5629
5652 5649 5640 5641 5636 5631 5625 5627 5629 5628 5628 5630 5635 5636 5633 5634 5636 5640 5642 5646 5647 5650 5651 5650 5649 5651 5652 5651 5648 5646 5646 5646 5646 5645 5643 5640 5637 5635 5633 5631 5629 5627 5622 5619
5654 5651 5651 5644 5637 5631 5630 5635 5635 5634 5632 5633 5633 5633 5635 5638 5641 5643 5645 5647 5649 5650 5651 5649 5651 5653 5653 5652 5648 5646 5646 5646 5644 5641 5638 5634 5632 5630 5628 5626 5623 5621 5617 5612
5659 5654 5648 5644 5640 5640 5644 5642 5639 5637 5636 5635 5636 5639 5641 5643 5644 5646 5648 5648 5649 5649 5650 5651 5650 5652 5652 5649 5648 5647 5645 5643 5640 5636 5634 5631 5628 5625 5621 5617 5614 5612 5610 5606
5669 5665 5658 5653 5652 5650 5646 5645 5644 5642 5641 5640 5641 5643 5644 5646 5647 5648 5649 5650 5649 5650 5650 5653 5652 5651 5651 5650 5650 5649 5647 5643 5639 5635 5631 5627 5624 5619 5614 5610 5606 5604 5602 5600
5672 5671 5665 5660 5656 5653 5650 5648 5647 5645 5645 5645 5646 5647 5648 5649 5650 5650 5651 5651 5651 5652 5653 5655 5655 5654 5654 5653 5652 5651 5648 5644 5639 5636 5632 5626 5619 5614 5609 5605 5601 5597 5594 5593
5681 5681 5673 5668 5664 5660 5655 5653 5651 5650 5649 5648 5648 5650 5651 5652 5652 5652 5652 5654 5654 5654 5653 5655 5658 5659 5659 5657 5655 5652 5648 5644 5640 5637 5633 5627 5619 5611 5606 5600 5594 5589 5586 5584
5696 5696 5688 5684 5677 5669 5660 5656 5654 5652 5651 5651 5649 5649 5650 5651 5652 5653 5654 5656 5656 5656 5656 5659 5661 5662 5661 5659 5657 5654 5650 5645 5641 5638 5634 5630 5624 5614 5603 5598 5590 5584 5578 5575
5707 5701 5697 5691 5686 5676 5667 5662 5659 5655 5653 5651 5651 5650 5650 5650 5652 5653 5655 5656 5656 5657 5658 5660 5661 5662 5661 5660 5658 5655 5652 5647 5642 5639 5635 5631 5626 5621 5614 5602 5592 5583 5577 5573
5705 5701 5695 5691 5687 5680 5674 5667 5662 5658 5655 5652 5650 5650 5649 5650 5651 5652 5653 5654 5655 5658 5660 5660 5660 5660 5660 5660 5659 5657 5655 5647 5643 5639 5636 5632 5628 5623 5617 5611 5603 5593 5584 5578
5705 5704 5703 5698 5691 5683 5677 5672 5665 5660 5656 5652 5650 5649 5648 5648 5649 5650 5652 5654 5656 5658 5658 5658 5659 5660 5660 5661 5661 5660 5657 5652 5647 5643 5638 5634 5630 5625 5621 5614 5606 5600 5596 5590
5706 5702 5700 5696 5691 5685 5679 5673 5668 5663 5658 5654 5651 5648 5647 5647 5648 5649 5652 5653 5654 5655 5655 5656 5657 5659 5661 5662 5662 5661 5657 5650 5647 5644 5640 5637 5633 5629 5624 5616 5611 5607 5603 5599
5706 5701 5698 5695 5692 5688 5682 5677 5672 5667 5662 5657 5653 5650 5648 5648 5648 5649 5650 5651 5653 5654 5655 5656 5657 5659 5662 5664 5665 5664 5660 5653 5645 5646 5644 5640 5636 5632 5627 5620 5616 5613 5608 5602
5715 5711 5706 5701 5695 5689 5684 5679 5674 5669 5663 5659 5654 5651 5649 5648 5646 5646 5647 5648 5651 5654 5655 5656 5656 5658 5663 5664 5665 5666 5663 5658 5653 5650 5645 5641 5638 5634 5630 5625 5620 5617 5613 5609
5711 5708 5704 5699 5696 5690 5685 5680 5675 5670 5665 5660 5655 5652 5650 5647 5645 5643 5644 5645 5647 5649 5651 5654 5653 5660 5663 5663 5662 5663 5663 5660 5655 5652 5648 5640 5638 5636 5632 5628 5625 5621 5618 5615
5705 5703 5699 5695 5690 5687 5684 5680 5675 5670 5666 5661 5656 5653 5650 5647 5644 5641 5640 5641 5643 5644 5647 5649 5654 5659 5662 5663 5660 5665 5664 5661 5658 5655 5651 5647 5643 5639 5636 5632 5628 5624 5621 5620
5700 5697 5693 5690 5686 5683 5681 5679 5674 5670 5666 5661 5657 5654 5651 5648 5643 5639 5636 5635 5639 5639 5642 5647 5654 5658 5660 5660 5661 5666 5665 5664 5661 5658 5654 5650 5647 5643 5640 5637 5632 5628 5625 5623
5696 5693 5689 5686 5683 5681 5679 5677 5673 5669 5665 5660 5658 5655 5652 5648 5646 5642 5638 5635 5636 5636 5640 5648 5653 5655 5657 5659 5667 5669 5668 5666 5663 5661 5657 5653 5650 5647 5644 5640 5636 5632 5629 5626
5691 5689 5686 5684 5681 5680 5677 5673 5670 5667 5663 5660 5658 5655 5653 5651 5649 5645 5644 5644 5641 5639 5642 5649 5650 5653 5656 5665 5671 5672 5671 5669 5666 5664 5660 5657 5654 5650 5647 5643 5638 5634 5631 5628
5683 5682 5681 5681 5679 5677 5673 5670 5667 5664 5661 5660 5658 5656 5653 5651 5650 5650 5647 5645 5642 5641 5646 5650 5651 5655 5659 5669 5672 5674 5674 5672 5669 5667 5663 5660 5656 5653 5650 5646 5641 5637 5635 5631
5671 5673 5673 5672 5671 5671 5671 5668 5663 5659 5657 5656 5656 5654 5652 5651 5651 5652 5651 5649 5647 5645 5650 5653 5654 5656 5663 5669 5672 5673 5674 5673 5672 5669 5665 5662 5659 5656 5653 5649 5644 5641 5638 5635
5657 5659 5661 5662 5665 5664 5665 5663 5660 5657 5655 5653 5652 5652 5651 5649 5648 5648 5647 5648 5648 5647 5649 5653 5656 5659 5663 5667 5670 5671 5671 5670 5668 5666 5666 5664 5662 5658 5655 5651 5647 5643 5640 5637
5643 5645 5647 5649 5652 5654 5656 5656 5656 5655 5653 5652 5651 5651 5649 5648 5647 5647 5647 5647 5648 5649 5650 5652 5654 5656 5659 5662 5665 5668 5669 5669 5668 5667 5666 5664 5662 5659 5657 5653 5650 5646 5642 5639